Location: Newark
(36.1358°N, 115.1208°W)
Time: 10:41:16
(UTC+00:00)

ISS - Pass Details

Date: 23 January 2021
Orbit: 417 x 422 km, 51.6° (Epoch: 28 February)

Event Time Altitude Azimuth Distance (km) Brightness Sun altitude
Rises 01:21:58 0° 254° (WSW) 2,360 2.9 -5.5°
Reaches altitude 10° 01:24:16 10° 267° (W) 1,500 0.6 -5.9°
Maximum altitude 01:27:11 27° 327° (NNW) 853 -2.0 -6.5°
Drops below altitude 10° 01:30:07 10° 27° (NNE) 1,508 -1.4 -7.0°
Enters shadow 01:31:14 - 35° (NE) 1,910 -0.9 -7.3°
